Location: Pella
(41.4080°N, 92.9160°W)
Time: 15:30:30
(UTC-05:00)

Iridium 91 - Visible Passes

Search period start: 30 April 2017 00:00
Search period end: 10 May 2017 00:00
Orbit: 776 x 779 km, 86.4° (Epoch: 29 April)

Date Brightness Start Highest point End Pass type
(mag) Time Alt. Az. Time Alt. Az. Time Alt. Az.
30 Apr 9.2 05:38:29 10° E 05:38:59 10° ENE 05:39:29 10° ENE visible
03 May 8.6 05:35:56 10° ESE 05:38:50 15° ENE 05:41:46 10° NE visible
07 May 8.8 05:03:47 10° E 05:05:35 12° ENE 05:07:23 10° NE visible
